| time (UTC) | temp C | wind direction | speed KPH | gust KPH | rain 1hr cm | rain 24hr cm | rain mn cm | humidity % | barometer mb |
| 20260510000037 | 27 | 171 | 16.1 | 22.5 | 0.00 | 0.00 | 0.00 | 30 | 1005.6 |
| 20260509235521 | 27 | 149 | 11.3 | 22.5 | 0.00 | 0.00 | 0.00 | 30 | 1005.7 |
| 20260509235021 | 28 | 203 | 14.5 | 22.5 | 0.00 | 0.00 | 0.00 | 29 | 1005.7 |
| 20260509234539 | 28 | 130 | 12.9 | 19.3 | 0.00 | 0.00 | 0.00 | 28 | 1005.8 |
| 20260509234021 | 28 | 170 | 12.9 | 19.3 | 0.00 | 0.00 | 0.00 | 28 | 1005.8 |
| 20260509233520 | 28 | 167 | 12.9 | 20.9 | 0.00 | 0.00 | 0.00 | 28 | 1005.8 |
| 20260509233037 | 28 | 155 | 12.9 | 22.5 | 0.00 | 0.00 | 0.00 | 28 | 1005.9 |
| 20260509232524 | 28 | 190 | 12.9 | 22.5 | 0.00 | 0.00 | 0.00 | 28 | 1005.9 |
| 20260509232021 | 28 | 154 | 11.3 | 22.5 | 0.00 | 0.00 | 0.00 | 28 | 1005.9 |
| 20260509231537 | 29 | 154 | 12.9 | 24.1 | 0.00 | 0.00 | 0.00 | 27 | 1005.8 |
| 20260509231022 | 29 | 164 | 11.3 | 24.1 | 0.00 | 0.00 | 0.00 | 29 | 1005.9 |
| 20260509230522 | 29 | 189 | 12.9 | 24.1 | 0.00 | 0.00 | 0.00 | 27 | 1005.8 |
| 20260509230041 | 29 | 136 | 12.9 | 24.1 | 0.00 | 0.00 | 0.00 | 26 | 1005.8 |
| 20260509225522 | 29 | 159 | 16.1 | 22.5 | 0.00 | 0.00 | 0.00 | 25 | 1005.8 |
| 20260509225022 | 29 | 179 | 12.9 | 20.9 | 0.00 | 0.00 | 0.00 | 28 | 1005.8 |
| 20260509224536 | 29 | 151 | 11.3 | 25.7 | 0.00 | 0.00 | 0.00 | 27 | 1005.7 |
| 20260509224021 | 30 | 158 | 14.5 | 25.7 | 0.00 | 0.00 | 0.00 | 27 | 1005.8 |
| 20260509223523 | 30 | 153 | 12.9 | 25.7 | 0.00 | 0.00 | 0.00 | 26 | 1005.8 |
| 20260509223038 | 30 | 155 | 8.0 | 22.5 | 0.00 | 0.00 | 0.00 | 26 | 1005.8 |
| 20260509222520 | 30 | 164 | 11.3 | 25.7 | 0.00 | 0.00 | 0.00 | 24 | 1005.6 |
| 20260509222023 | 30 | 188 | 9.7 | 27.4 | 0.00 | 0.00 | 0.00 | 26 | 1005.6 |
| 20260509221541 | 30 | 163 | 12.9 | 27.4 | 0.00 | 0.00 | 0.00 | 26 | 1005.6 |
| 20260509221024 | 30 | 203 | 12.9 | 25.7 | 0.00 | 0.00 | 0.00 | 26 | 1005.5 |
| 20260509220525 | 30 | 165 | 12.9 | 25.7 | 0.00 | 0.00 | 0.00 | 25 | 1005.5 |
| 20260509220038 | 30 | 155 | 14.5 | 25.7 | 0.00 | 0.00 | 0.00 | 25 | 1005.4 |
| 20260509215523 | 30 | 235 | 6.4 | 29.0 | 0.00 | 0.00 | 0.00 | 22 | 1005.5 |
| 20260509215022 | 30 | 161 | 14.5 | 29.0 | 0.00 | 0.00 | 0.00 | 24 | 1005.5 |
| 20260509214539 | 30 | 184 | 8.0 | 22.5 | 0.00 | 0.00 | 0.00 | 27 | 1005.6 |
| 20260509214020 | 30 | 157 | 8.0 | 22.5 | 0.00 | 0.00 | 0.00 | 26 | 1005.6 |
| 20260509213522 | 30 | 151 | 6.4 | 20.9 | 0.00 | 0.00 | 0.00 | 25 | 1005.6 |
| 20260509213038 | 30 | 185 | 11.3 | 19.3 | 0.00 | 0.00 | 0.00 | 26 | 1005.7 |
| 20260509212524 | 30 | 150 | 8.0 | 19.3 | 0.00 | 0.00 | 0.00 | 26 | 1005.8 |
| 20260509212024 | 30 | 126 | 11.3 | 19.3 | 0.00 | 0.00 | 0.00 | 24 | 1005.8 |
| 20260509211539 | 30 | 158 | 8.0 | 14.5 | 0.00 | 0.00 | 0.00 | 25 | 1005.9 |
| 20260509211021 | 30 | 267 | 6.4 | 17.7 | 0.00 | 0.00 | 0.00 | 23 | 1005.8 |
| 20260509210521 | 30 | 135 | 4.8 | 19.3 | 0.00 | 0.00 | 0.00 | 25 | 1005.9 |
| 20260509210043 | 30 | 188 | 11.3 | 19.3 | 0.00 | 0.00 | 0.00 | 24 | 1006.1 |
| 20260509205520 | 30 | 161 | 4.8 | 16.1 | 0.00 | 0.00 | 0.00 | 24 | 1006.1 |
| 20260509205021 | 30 | 190 | 4.8 | 19.3 | 0.00 | 0.00 | 0.00 | 24 | 1006.1 |
| 20260509204541 | 30 | 161 | 8.0 | 19.3 | 0.00 | 0.00 | 0.00 | 24 | 1006.1 |
| 20260509204021 | 29 | 153 | 1.6 | 19.3 | 0.00 | 0.00 | 0.00 | 24 | 1006.2 |
| 20260509203520 | 30 | 155 | 9.7 | 29.0 | 0.00 | 0.00 | 0.00 | 26 | 1006.5 |
| 20260509203037 | 30 | 151 | 9.7 | 29.0 | 0.00 | 0.00 | 0.00 | 23 | 1006.5 |
| 20260509202520 | 30 | 157 | 17.7 | 22.5 | 0.00 | 0.00 | 0.00 | 24 | 1006.5 |
| 20260509202023 | 30 | 133 | 12.9 | 22.5 | 0.00 | 0.00 | 0.00 | 27 | 1006.5 |
| 20260509201540 | 30 | 186 | 12.9 | 22.5 | 0.00 | 0.00 | 0.00 | 30 | 1006.6 |
| 20260509201022 | 29 | 183 | 8.0 | 22.5 | 0.00 | 0.00 | 0.00 | 25 | 1006.6 |
| 20260509200521 | 30 | 139 | 8.0 | 22.5 | 0.00 | 0.00 | 0.00 | 24 | 1006.8 |
| 20260509200039 | 30 | 154 | 9.7 | 22.5 | 0.00 | 0.00 | 0.00 | 24 | 1006.8 |
| 20260509195524 | 31 | 171 | 9.7 | 22.5 | 0.00 | 0.00 | 0.00 | 23 | 1006.8 |
| 20260509195021 | 30 | 188 | 9.7 | 20.9 | 0.00 | 0.00 | 0.00 | 25 | 1006.9 |
| 20260509194551 | 30 | 218 | 6.4 | 22.5 | 0.00 | 0.00 | 0.00 | 21 | 1007.0 |
| 20260509194021 | 31 | 151 | 14.5 | 24.1 | 0.00 | 0.00 | 0.00 | 25 | 1007.0 |
| 20260509193522 | 30 | 190 | 14.5 | 24.1 | 0.00 | 0.00 | 0.00 | 25 | 1007.1 |
| 20260509193036 | 30 | 133 | 3.2 | 14.5 | 0.00 | 0.00 | 0.00 | 26 | 1007.2 |
| 20260509192522 | 30 | 53 | 3.2 | 16.1 | 0.00 | 0.00 | 0.00 | 22 | 1007.2 |
| 20260509192021 | 30 | 178 | 6.4 | 17.7 | 0.00 | 0.00 | 0.00 | 22 | 1007.3 |
| 20260509191535 | 30 | 220 | 9.7 | 17.7 | 0.00 | 0.00 | 0.00 | 21 | 1007.2 |
| 20260509191023 | 30 | 207 | 6.4 | 17.7 | 0.00 | 0.00 | 0.00 | 24 | 1007.4 |
| 20260509190520 | 30 | 257 | 8.0 | 17.7 | 0.00 | 0.00 | 0.00 | 24 | 1007.4 |
| 20260509190040 | 30 | 263 | 4.8 | 14.5 | 0.00 | 0.00 | 0.00 | 23 | 1007.4 |
| 20260509185521 | 30 | 313 | 6.4 | 14.5 | 0.00 | 0.00 | 0.00 | 24 | 1007.5 |
| 20260509185022 | 30 | 299 | 8.0 | 16.1 | 0.00 | 0.00 | 0.00 | 24 | 1007.5 |
| 20260509184538 | 29 | 296 | 8.0 | 19.3 | 0.00 | 0.00 | 0.00 | 26 | 1007.5 |
| 20260509184020 | 29 | 234 | 8.0 | 19.3 | 0.00 | 0.00 | 0.00 | 24 | 1007.6 |
| 20260509183522 | 29 | 236 | 6.4 | 14.5 | 0.00 | 0.00 | 0.00 | 23 | 1007.6 |
| 20260509183038 | 29 | 264 | 4.8 | 24.1 | 0.00 | 0.00 | 0.00 | 24 | 1007.7 |
| 20260509182521 | 29 | 261 | 9.7 | 24.1 | 0.00 | 0.00 | 0.00 | 25 | 1007.8 |
| 20260509182022 | 29 | 232 | 8.0 | 20.9 | 0.00 | 0.00 | 0.00 | 26 | 1007.9 |
| 20260509181538 | 29 | 197 | 12.9 | 25.7 | 0.00 | 0.00 | 0.00 | 25 | 1008.0 |
| 20260509181021 | 28 | 239 | 14.5 | 25.7 | 0.00 | 0.00 | 0.00 | 25 | 1008.0 |
| 20260509180522 | 28 | 230 | 4.8 | 22.5 | 0.00 | 0.00 | 0.00 | 27 | 1008.1 |
| 20260509180050 | 29 | 200 | 11.3 | 24.1 | 0.00 | 0.00 | 0.00 | 29 | 1008.1 |
| 20260509175522 | 29 | 182 | 12.9 | 24.1 | 0.00 | 0.00 | 0.00 | 28 | 1008.2 |
| 20260509175022 | 28 | 232 | 9.7 | 22.5 | 0.00 | 0.00 | 0.00 | 27 | 1008.3 |
| 20260509174540 | 28 | 224 | 8.0 | 19.3 | 0.00 | 0.00 | 0.00 | 24 | 1008.3 |
| 20260509174021 | 28 | 211 | 8.0 | 19.3 | 0.00 | 0.00 | 0.00 | 25 | 1008.3 |
| 20260509173520 | 28 | 186 | 11.3 | 20.9 | 0.00 | 0.00 | 0.00 | 27 | 1008.3 |
| 20260509173053 | 28 | 274 | 9.7 | 22.5 | 0.00 | 0.00 | 0.00 | 26 | 1008.3 |
| 20260509172525 | 28 | 258 | 11.3 | 27.4 | 0.00 | 0.00 | 0.00 | 27 | 1008.4 |
| 20260509172023 | 28 | 297 | 12.9 | 27.4 | 0.00 | 0.00 | 0.00 | 26 | 1008.5 |
| 20260509171541 | 28 | 256 | 14.5 | 25.7 | 0.00 | 0.00 | 0.00 | 28 | 1008.5 |
| 20260509171020 | 28 | 234 | 14.5 | 25.7 | 0.00 | 0.00 | 0.00 | 26 | 1008.5 |
| 20260509170520 | 27 | 254 | 12.9 | 24.1 | 0.00 | 0.00 | 0.00 | 26 | 1008.6 |
| 20260509170038 | 27 | 254 | 14.5 | 27.4 | 0.00 | 0.00 | 0.00 | 26 | 1008.7 |
| 20260509165521 | 27 | 276 | 16.1 | 27.4 | 0.00 | 0.00 | 0.00 | 27 | 1008.6 |
| 20260509165021 | 27 | 300 | 14.5 | 24.1 | 0.00 | 0.00 | 0.00 | 27 | 1008.6 |
| 20260509164537 | 27 | 256 | 9.7 | 25.7 | 0.00 | 0.00 | 0.00 | 29 | 1008.6 |
| 20260509164021 | 27 | 257 | 12.9 | 29.0 | 0.00 | 0.00 | 0.00 | 30 | 1008.7 |
| 20260509163525 | 27 | 273 | 16.1 | 29.0 | 0.00 | 0.00 | 0.00 | 28 | 1008.7 |
| 20260509163037 | 27 | 226 | 11.3 | 22.5 | 0.00 | 0.00 | 0.00 | 33 | 1008.8 |
| 20260509162521 | 27 | 247 | 8.0 | 22.5 | 0.00 | 0.00 | 0.00 | 33 | 1008.9 |
| 20260509162050 | 27 | 238 | 8.0 | 20.9 | 0.00 | 0.00 | 0.00 | 36 | 1008.9 |
| 20260509161552 | 26 | 249 | 11.3 | 20.9 | 0.00 | 0.00 | 0.00 | 35 | 1008.9 |
| 20260509161022 | 26 | 280 | 11.3 | 20.9 | 0.00 | 0.00 | 0.00 | 38 | 1008.9 |
| 20260509160523 | 26 | 219 | 11.3 | 17.7 | 0.00 | 0.00 | 0.00 | 38 | 1008.8 |
| 20260509160039 | 26 | 229 | 8.0 | 17.7 | 0.00 | 0.00 | 0.00 | 38 | 1008.8 |
| 20260509155522 | 26 | 208 | 11.3 | 17.7 | 0.00 | 0.00 | 0.00 | 39 | 1008.7 |
| 20260509155022 | 26 | 211 | 8.0 | 17.7 | 0.00 | 0.00 | 0.00 | 40 | 1008.6 |
| 20260509154545 | 25 | 279 | 9.7 | 22.5 | 0.00 | 0.00 | 0.00 | 38 | 1008.7 |
| 20260509154022 | 25 | 221 | 12.9 | 22.5 | 0.00 | 0.00 | 0.00 | 41 | 1008.7 |
| 20260509153521 | 25 | 238 | 14.5 | 22.5 | 0.00 | 0.00 | 0.00 | 38 | 1008.7 |
| 20260509153052 | 25 | 236 | 9.7 | 20.9 | 0.00 | 0.00 | 0.00 | 42 | 1008.6 |
| 20260509152521 | 24 | 257 | 14.5 | 20.9 | 0.00 | 0.00 | 0.00 | 43 | 1008.6 |
| 20260509152021 | 24 | 259 | 9.7 | 19.3 | 0.00 | 0.00 | 0.00 | 44 | 1008.6 |
| 20260509151537 | 23 | 236 | 9.7 | 22.5 | 0.00 | 0.00 | 0.00 | 44 | 1008.6 |
| 20260509151021 | 23 | 240 | 12.9 | 22.5 | 0.00 | 0.00 | 0.00 | 44 | 1008.6 |
| 20260509150521 | 23 | 193 | 9.7 | 22.5 | 0.00 | 0.00 | 0.00 | 47 | 1008.6 |
| 20260509150037 | 22 | 221 | 8.0 | 16.1 | 0.00 | 0.00 | 0.00 | 51 | 1008.5 |
| 20260509145523 | 22 | 236 | 4.8 | 16.1 | 0.00 | 0.00 | 0.00 | 52 | 1008.5 |
| 20260509145021 | 21 | 270 | 8.0 | 16.1 | 0.00 | 0.00 | 0.00 | 52 | 1008.4 |
| 20260509144544 | 21 | 240 | 11.3 | 19.3 | 0.00 | 0.00 | 0.00 | 54 | 1008.5 |
| 20260509144021 | 21 | 225 | 9.7 | 20.9 | 0.00 | 0.00 | 0.00 | 55 | 1008.6 |
| 20260509143521 | 21 | 255 | 9.7 | 20.9 | 0.00 | 0.00 | 0.00 | 57 | 1008.6 |
| 20260509143040 | 20 | 220 | 6.4 | 12.9 | 0.00 | 0.00 | 0.00 | 59 | 1008.5 |
| 20260509142520 | 20 | 247 | 4.8 | 16.1 | 0.00 | 0.00 | 0.00 | 61 | 1008.4 |
| 20260509142020 | 19 | 0 | 6.4 | 16.1 | 0.00 | 0.00 | 0.00 | 64 | 1008.3 |
| 20260509141541 | 18 | 249 | 4.8 | 11.3 | 0.00 | 0.00 | 0.00 | 68 | 1008.3 |
| 20260509141023 | 18 | 250 | 3.2 | 11.3 | 0.00 | 0.00 | 0.00 | 70 | 1008.3 |
| 20260509140521 | 17 | 249 | 6.4 | 12.9 | 0.00 | 0.00 | 0.00 | 72 | 1008.3 |
| 20260509140052 | 17 | 242 | 3.2 | 12.9 | 0.00 | 0.00 | 0.00 | 76 | 1008.3 |
| 20260509135521 | 16 | 234 | 6.4 | 12.9 | 0.00 | 0.00 | 0.00 | 81 | 1008.4 |
| 20260509135021 | 16 | 249 | 3.2 | 12.9 | 0.00 | 0.00 | 0.00 | 85 | 1008.3 |
| 20260509134538 | 15 | 199 | 6.4 | 12.9 | 0.00 | 0.00 | 0.00 | 88 | 1008.5 |
| 20260509134023 | 15 | 178 | 1.6 | 6.4 | 0.00 | 0.00 | 0.00 | 90 | 1008.5 |
| 20260509133521 | 14 | 221 | 1.6 | 8.0 | 0.00 | 0.00 | 0.00 | 91 | 1008.6 |
| 20260509133039 | 13 | 237 | 1.6 | 8.0 | 0.00 | 0.00 | 0.00 | 92 | 1008.6 |
| 20260509132522 | 13 | 241 | 4.8 | 8.0 | 0.00 | 0.00 | 0.00 | 92 | 1008.6 |
| 20260509132022 | 12 | 251 | 3.2 | 6.4 | 0.00 | 0.00 | 0.00 | 93 | 1008.6 |
| 20260509131537 | 12 | 247 | 1.6 | 4.8 | 0.00 | 0.00 | 0.00 | 93 | 1008.5 |
| 20260509131024 | 12 | 0 | 0.0 | 4.8 | 0.00 | 0.00 | 0.00 | 93 | 1008.4 |
| 20260509130521 | 11 | 236 | 0.0 | 4.8 | 0.00 | 0.00 | 0.00 | 93 | 1008.4 |
| 20260509130037 | 11 | 0 | 1.6 | 6.4 | 0.00 | 0.00 | 0.00 | 93 | 1008.3 |
| 20260509125522 | 11 | 162 | 0.0 | 6.4 | 0.00 | 0.00 | 0.00 | 94 | 1008.3 |
| 20260509125020 | 11 | 162 | 1.6 | 9.7 | 0.00 | 0.00 | 0.00 | 94 | 1008.3 |
| 20260509124544 | 10 | 0 | 0.0 | 9.7 | 0.00 | 0.00 | 0.00 | 94 | 1008.2 |
| 20260509124021 | 10 | 162 | 6.4 | 9.7 | 0.00 | 0.00 | 0.00 | 94 | 1008.2 |
| 20260509123521 | 10 | 0 | 0.0 | 0.0 | 0.00 | 0.00 | 0.00 | 93 | 1008.1 |
| 20260509123039 | 10 | 0 | 0.0 | 1.6 | 0.00 | 0.00 | 0.00 | 93 | 1008.0 |
| 20260509122521 | 9 | 0 | 0.0 | 3.2 | 0.00 | 0.00 | 0.00 | 93 | 1007.9 |
| 20260509122021 | 9 | 0 | 0.0 | 4.8 | 0.00 | 0.00 | 0.00 | 93 | 1007.9 |
| 20260509121537 | 8 | 242 | 1.6 | 4.8 | 0.00 | 0.00 | 0.00 | 93 | 1007.8 |
| 20260509121021 | 8 | 242 | 3.2 | 4.8 | 0.00 | 0.00 | 0.00 | 93 | 1008.0 |
| 20260509120521 | 8 | 194 | 1.6 | 4.8 | 0.00 | 0.00 | 0.00 | 92 | 1007.9 |
| 20260509120040 | 8 | 194 | 1.6 | 4.8 | 0.00 | 0.00 | 0.00 | 92 | 1007.8 |
| 20260509115520 | 8 | 192 | 3.2 | 4.8 | 0.00 | 0.00 | 0.00 | 92 | 1007.8 |
| 20260509115021 | 8 | 192 | 1.6 | 6.4 | 0.00 | 0.00 | 0.00 | 92 | 1007.8 |
| 20260509114538 | 8 | 192 | 3.2 | 6.4 | 0.00 | 0.00 | 0.00 | 92 | 1007.8 |
| 20260509114021 | 8 | 192 | 4.8 | 6.4 | 0.00 | 0.00 | 0.00 | 92 | 1007.6 |
| 20260509113521 | 8 | 257 | 3.2 | 4.8 | 0.00 | 0.00 | 0.00 | 92 | 1007.6 |
| 20260509113038 | 8 | 257 | 1.6 | 4.8 | 0.00 | 0.00 | 0.00 | 92 | 1007.6 |
| 20260509112523 | 8 | 257 | 0.0 | 3.2 | 0.00 | 0.00 | 0.00 | 92 | 1007.5 |
| 20260509112021 | 8 | 0 | 0.0 | 3.2 | 0.00 | 0.00 | 0.00 | 92 | 1007.5 |
| 20260509111538 | 8 | 0 | 0.0 | 3.2 | 0.00 | 0.00 | 0.00 | 92 | 1007.4 |
| 20260509111021 | 8 | 257 | 0.0 | 3.2 | 0.00 | 0.00 | 0.00 | 92 | 1007.3 |
| 20260509110522 | 8 | 0 | 0.0 | 4.8 | 0.00 | 0.00 | 0.00 | 92 | 1007.4 |
| 20260509110037 | 8 | 257 | 0.0 | 4.8 | 0.00 | 0.00 | 0.00 | 92 | 1007.4 |
| 20260509105522 | 8 | 257 | 1.6 | 6.4 | 0.00 | 0.00 | 0.00 | 91 | 1007.5 |
| 20260509105021 | 8 | 258 | 1.6 | 9.7 | 0.00 | 0.00 | 0.00 | 91 | 1007.5 |
| 20260509104541 | 8 | 269 | 3.2 | 9.7 | 0.00 | 0.00 | 0.00 | 91 | 1007.6 |
| 20260509104020 | 8 | 251 | 4.8 | 9.7 | 0.00 | 0.00 | 0.00 | 91 | 1007.6 |
| 20260509103524 | 8 | 253 | 4.8 | 9.7 | 0.00 | 0.00 | 0.00 | 91 | 1007.6 |
| 20260509103046 | 8 | 298 | 3.2 | 9.7 | 0.00 | 0.00 | 0.00 | 91 | 1007.5 |
| 20260509102524 | 8 | 292 | 3.2 | 9.7 | 0.00 | 0.00 | 0.00 | 91 | 1007.5 |
| 20260509102021 | 7 | 273 | 4.8 | 9.7 | 0.00 | 0.00 | 0.00 | 90 | 1007.4 |
| 20260509101540 | 7 | 252 | 4.8 | 9.7 | 0.00 | 0.00 | 0.00 | 90 | 1007.5 |
| 20260509101022 | 8 | 259 | 3.2 | 6.4 | 0.00 | 0.00 | 0.00 | 90 | 1007.6 |
| 20260509100521 | 8 | 283 | 3.2 | 6.4 | 0.00 | 0.00 | 0.00 | 90 | 1007.6 |
| 20260509100038 | 8 | 284 | 3.2 | 4.8 | 0.00 | 0.00 | 0.00 | 90 | 1007.6 |
| 20260509095522 | 8 | 225 | 1.6 | 4.8 | 0.00 | 0.00 | 0.00 | 90 | 1007.6 |
| 20260509095024 | 8 | 223 | 1.6 | 4.8 | 0.00 | 0.00 | 0.00 | 90 | 1007.5 |
| 20260509094543 | 8 | 224 | 1.6 | 4.8 | 0.00 | 0.00 | 0.00 | 90 | 1007.5 |
| 20260509094021 | 8 | 224 | 0.0 | 4.8 | 0.00 | 0.00 | 0.00 | 90 | 1007.5 |
| 20260509093521 | 8 | 0 | 1.6 | 4.8 | 0.00 | 0.00 | 0.00 | 90 | 1007.6 |
| 20260509093040 | 8 | 223 | 1.6 | 4.8 | 0.00 | 0.00 | 0.00 | 90 | 1007.5 |
| 20260509092521 | 8 | 223 | 3.2 | 6.4 | 0.00 | 0.00 | 0.00 | 90 | 1007.6 |
| 20260509092021 | 8 | 224 | 4.8 | 6.4 | 0.00 | 0.00 | 0.00 | 90 | 1007.6 |
| 20260509091547 | 9 | 223 | 3.2 | 6.4 | 0.00 | 0.00 | 0.00 | 90 | 1007.6 |
| 20260509091023 | 9 | 223 | 3.2 | 6.4 | 0.00 | 0.00 | 0.00 | 90 | 1007.7 |
| 20260509090521 | 9 | 223 | 3.2 | 4.8 | 0.00 | 0.00 | 0.00 | 90 | 1007.7 |
| 20260509090051 | 9 | 224 | 3.2 | 6.4 | 0.00 | 0.00 | 0.00 | 90 | 1007.6 |
| 20260509085521 | 8 | 224 | 1.6 | 6.4 | 0.00 | 0.00 | 0.00 | 90 | 1007.6 |
| 20260509085020 | 8 | 227 | 3.2 | 6.4 | 0.00 | 0.00 | 0.00 | 90 | 1007.5 |
| 20260509084541 | 8 | 236 | 3.2 | 6.4 | 0.00 | 0.00 | 0.00 | 90 | 1007.5 |
| 20260509084022 | 9 | 238 | 3.2 | 6.4 | 0.00 | 0.00 | 0.00 | 90 | 1007.6 |
| 20260509083521 | 9 | 229 | 3.2 | 6.4 | 0.00 | 0.00 | 0.00 | 90 | 1007.6 |
| 20260509083041 | 9 | 206 | 3.2 | 4.8 | 0.00 | 0.00 | 0.00 | 90 | 1007.7 |
| 20260509082521 | 9 | 205 | 3.2 | 4.8 | 0.00 | 0.00 | 0.00 | 90 | 1007.7 |
| 20260509082023 | 9 | 205 | 1.6 | 4.8 | 0.00 | 0.00 | 0.00 | 90 | 1007.7 |
| 20260509081538 | 8 | 205 | 1.6 | 6.4 | 0.00 | 0.00 | 0.00 | 90 | 1007.7 |
| 20260509081023 | 8 | 205 | 3.2 | 6.4 | 0.00 | 0.00 | 0.00 | 89 | 1007.7 |
| 20260509080524 | 8 | 204 | 4.8 | 6.4 | 0.00 | 0.00 | 0.00 | 89 | 1007.7 |
| 20260509080045 | 8 | 202 | 4.8 | 6.4 | 0.00 | 0.00 | 0.00 | 89 | 1007.6 |
| 20260509075521 | 9 | 215 | 4.8 | 6.4 | 0.00 | 0.00 | 0.00 | 89 | 1007.7 |
| 20260509075022 | 9 | 188 | 3.2 | 6.4 | 0.00 | 0.00 | 0.00 | 89 | 1007.8 |
| 20260509074553 | 9 | 188 | 3.2 | 6.4 | 0.00 | 0.00 | 0.00 | 89 | 1007.7 |
| 20260509074023 | 9 | 188 | 3.2 | 6.4 | 0.00 | 0.00 | 0.00 | 89 | 1007.6 |
| 20260509073522 | 9 | 196 | 4.8 | 6.4 | 0.00 | 0.00 | 0.00 | 89 | 1007.6 |
| 20260509073058 | 8 | 186 | 3.2 | 8.0 | 0.00 | 0.00 | 0.00 | 89 | 1007.6 |
| 20260509072521 | 8 | 204 | 4.8 | 8.0 | 0.00 | 0.00 | 0.00 | 88 | 1007.6 |
| 20260509072021 | 8 | 199 | 4.8 | 8.0 | 0.00 | 0.00 | 0.00 | 88 | 1007.7 |
| 20260509071542 | 8 | 197 | 4.8 | 8.0 | 0.00 | 0.00 | 0.00 | 87 | 1007.6 |
| 20260509071022 | 8 | 207 | 4.8 | 8.0 | 0.00 | 0.00 | 0.00 | 87 | 1007.5 |
| 20260509070522 | 8 | 217 | 4.8 | 8.0 | 0.00 | 0.00 | 0.00 | 86 | 1007.6 |
| 20260509070041 | 8 | 217 | 3.2 | 8.0 | 0.00 | 0.00 | 0.00 | 86 | 1007.7 |
| 20260509065521 | 8 | 209 | 4.8 | 9.7 | 0.00 | 0.00 | 0.00 | 86 | 1007.7 |
| 20260509065021 | 8 | 193 | 6.4 | 9.7 | 0.00 | 0.00 | 0.00 | 86 | 1007.7 |
| 20260509064539 | 8 | 180 | 4.8 | 11.3 | 0.00 | 0.00 | 0.00 | 85 | 1007.6 |
| 20260509064024 | 8 | 186 | 6.4 | 11.3 | 0.00 | 0.00 | 0.00 | 84 | 1007.6 |
| 20260509063522 | 8 | 197 | 6.4 | 8.0 | 0.00 | 0.00 | 0.00 | 84 | 1007.6 |
| 20260509063053 | 9 | 192 | 4.8 | 8.0 | 0.00 | 0.00 | 0.00 | 84 | 1007.7 |
| 20260509062526 | 9 | 171 | 6.4 | 8.0 | 0.00 | 0.00 | 0.00 | 84 | 1007.7 |
| 20260509062021 | 9 | 170 | 4.8 | 6.4 | 0.00 | 0.00 | 0.00 | 84 | 1007.6 |
| 20260509061538 | 9 | 170 | 4.8 | 6.4 | 0.00 | 0.00 | 0.00 | 84 | 1007.6 |
| 20260509061025 | 9 | 0 | 0.0 | 0.0 | 0.00 | 0.00 | 0.00 | 84 | 1007.5 |
| 20260509060524 | 10 | 0 | 0.0 | 3.2 | 0.00 | 0.00 | 0.00 | 84 | 1007.5 |
| 20260509060101 | 10 | 0 | 0.0 | 3.2 | 0.00 | 0.00 | 0.00 | 84 | 1007.4 |
| 20260509055521 | 10 | 171 | 1.6 | 6.4 | 0.00 | 0.00 | 0.00 | 83 | 1007.4 |
| 20260509055025 | 10 | 0 | 1.6 | 6.4 | 0.00 | 0.00 | 0.00 | 83 | 1007.5 |
| 20260509054539 | 10 | 171 | 1.6 | 6.4 | 0.00 | 0.00 | 0.00 | 83 | 1007.5 |
| 20260509054021 | 10 | 171 | 0.0 | 6.4 | 0.00 | 0.00 | 0.00 | 83 | 1007.6 |
| 20260509053522 | 10 | 171 | 1.6 | 6.4 | 0.00 | 0.00 | 0.00 | 83 | 1007.6 |
| 20260509053051 | 10 | 171 | 1.6 | 6.4 | 0.00 | 0.00 | 0.00 | 82 | 1007.7 |
| 20260509052522 | 10 | 171 | 0.0 | 3.2 | 0.00 | 0.00 | 0.00 | 83 | 1007.6 |
| 20260509052021 | 10 | 0 | 0.0 | 3.2 | 0.00 | 0.00 | 0.00 | 82 | 1007.7 |
| 20260509051538 | 10 | 171 | 1.6 | 3.2 | 0.00 | 0.00 | 0.00 | 82 | 1007.7 |
| 20260509051021 | 10 | 171 | 1.6 | 3.2 | 0.00 | 0.00 | 0.00 | 82 | 1007.8 |
| 20260509050521 | 10 | 170 | 1.6 | 3.2 | 0.00 | 0.00 | 0.00 | 81 | 1007.9 |
| 20260509050037 | 11 | 170 | 0.0 | 4.8 | 0.00 | 0.00 | 0.00 | 81 | 1007.8 |
| 20260509045526 | 11 | 170 | 1.6 | 6.4 | 0.00 | 0.00 | 0.00 | 81 | 1007.9 |
| 20260509045022 | 11 | 171 | 1.6 | 6.4 | 0.00 | 0.00 | 0.00 | 81 | 1007.9 |
| 20260509044537 | 11 | 171 | 1.6 | 6.4 | 0.00 | 0.00 | 0.00 | 81 | 1007.9 |
| 20260509044025 | 11 | 171 | 3.2 | 6.4 | 0.00 | 0.00 | 0.00 | 80 | 1007.8 |
| 20260509043520 | 11 | 172 | 1.6 | 6.4 | 0.00 | 0.00 | 0.00 | 80 | 1007.8 |
| 20260509043045 | 11 | 172 | 3.2 | 8.0 | 0.00 | 0.00 | 0.00 | 79 | 1007.8 |
| 20260509042522 | 11 | 172 | 4.8 | 8.0 | 0.00 | 0.00 | 0.00 | 77 | 1007.8 |
| 20260509042022 | 11 | 158 | 6.4 | 8.0 | 0.00 | 0.00 | 0.00 | 76 | 1007.9 |
| 20260509041538 | 11 | 201 | 1.6 | 4.8 | 0.00 | 0.00 | 0.00 | 73 | 1007.9 |
| 20260509041021 | 12 | 0 | 0.0 | 0.0 | 0.00 | 0.00 | 0.00 | 73 | 1007.9 |
| 20260509040521 | 12 | 0 | 0.0 | 1.6 | 0.00 | 0.00 | 0.00 | 73 | 1007.8 |
| 20260509040055 | 12 | 0 | 0.0 | 4.8 | 0.00 | 0.00 | 0.00 | 73 | 1007.8 |
| 20260509035522 | 12 | 315 | 1.6 | 4.8 | 0.00 | 0.00 | 0.00 | 74 | 1007.9 |
| 20260509035022 | 12 | 0 | 0.0 | 0.0 | 0.00 | 0.00 | 0.00 | 73 | 1007.9 |
| 20260509034537 | 13 | 0 | 0.0 | 1.6 | 0.00 | 0.00 | 0.00 | 73 | 1007.8 |
| 20260509034021 | 13 | 0 | 0.0 | 3.2 | 0.00 | 0.00 | 0.00 | 73 | 1007.8 |
| 20260509033521 | 13 | 0 | 0.0 | 4.8 | 0.00 | 0.00 | 0.00 | 72 | 1007.7 |
| 20260509033054 | 13 | 0 | 1.6 | 4.8 | 0.00 | 0.00 | 0.00 | 71 | 1007.7 |
| 20260509032523 | 13 | 315 | 1.6 | 4.8 | 0.00 | 0.00 | 0.00 | 71 | 1007.7 |
| 20260509032021 | 13 | 0 | 0.0 | 0.0 | 0.00 | 0.00 | 0.00 | 71 | 1007.7 |
| 20260509031537 | 13 | 0 | 0.0 | 0.0 | 0.00 | 0.00 | 0.00 | 70 | 1007.7 |
| 20260509031022 | 14 | 0 | 0.0 | 0.0 | 0.00 | 0.00 | 0.00 | 68 | 1007.7 |
| 20260509030522 | 14 | 0 | 0.0 | 0.0 | 0.00 | 0.00 | 0.00 | 69 | 1007.6 |
| 20260509030039 | 14 | 0 | 0.0 | 4.8 | 0.00 | 0.00 | 0.00 | 68 | 1007.6 |
| 20260509025522 | 15 | 0 | 0.0 | 6.4 | 0.00 | 0.00 | 0.00 | 68 | 1007.5 |
| 20260509025021 | 15 | 88 | 3.2 | 6.4 | 0.00 | 0.00 | 0.00 | 69 | 1007.5 |
| 20260509024540 | 15 | 0 | 0.0 | 0.0 | 0.00 | 0.00 | 0.00 | 68 | 1007.4 |
| 20260509024025 | 15 | 0 | 0.0 | 0.0 | 0.00 | 0.00 | 0.00 | 66 | 1007.5 |
| 20260509023524 | 16 | 0 | 0.0 | 1.6 | 0.00 | 0.00 | 0.00 | 64 | 1007.4 |
| 20260509023037 | 16 | 0 | 0.0 | 1.6 | 0.00 | 0.00 | 0.00 | 62 | 1007.3 |
| 20260509022521 | 17 | 9 | 0.0 | 1.6 | 0.00 | 0.00 | 0.00 | 61 | 1007.3 |
| 20260509022021 | 17 | 0 | 0.0 | 0.0 | 0.00 | 0.00 | 0.00 | 58 | 1007.4 |
| 20260509021537 | 17 | 0 | 0.0 | 0.0 | 0.00 | 0.00 | 0.00 | 57 | 1007.3 |
| 20260509021023 | 18 | 0 | 0.0 | 1.6 | 0.00 | 0.00 | 0.00 | 54 | 1007.2 |
| 20260509020524 | 18 | 0 | 0.0 | 4.8 | 0.00 | 0.00 | 0.00 | 53 | 1007.1 |
| 20260509020037 | 18 | 0 | 0.0 | 6.4 | 0.00 | 0.00 | 0.00 | 52 | 1007.1 |
| 20260509015521 | 19 | 351 | 3.2 | 8.0 | 0.00 | 0.00 | 0.00 | 52 | 1007.0 |
| 20260509015023 | 19 | 333 | 3.2 | 8.0 | 0.00 | 0.00 | 0.00 | 51 | 1006.9 |
| 20260509014532 | 20 | 331 | 3.2 | 8.0 | 0.00 | 0.00 | 0.00 | 50 | 1006.7 |
| 20260509014022 | 20 | 9 | 3.2 | 6.4 | 0.00 | 0.00 | 0.00 | 50 | 1006.6 |
| 20260509013522 | 20 | 9 | 3.2 | 6.4 | 0.00 | 0.00 | 0.00 | 49 | 1006.5 |
| 20260509013038 | 20 | 10 | 3.2 | 6.4 | 0.00 | 0.00 | 0.00 | 48 | 1006.5 |
| 20260509012522 | 20 | 26 | 3.2 | 8.0 | 0.00 | 0.00 | 0.00 | 48 | 1006.5 |
| 20260509012022 | 21 | 27 | 3.2 | 8.0 | 0.00 | 0.00 | 0.00 | 48 | 1006.4 |
| 20260509011544 | 21 | 28 | 4.8 | 14.5 | 0.00 | 0.00 | 0.00 | 48 | 1006.4 |
| 20260509011022 | 21 | 24 | 3.2 | 14.5 | 0.00 | 0.00 | 0.00 | 47 | 1006.3 |
| 20260509010521 | 21 | 352 | 6.4 | 14.5 | 0.00 | 0.00 | 0.00 | 46 | 1006.3 |
| 20260509010039 | 21 | 21 | 6.4 | 12.9 | 0.00 | 0.00 | 0.00 | 47 | 1006.4 |
| 20260509005525 | 21 | 17 | 8.0 | 19.3 | 0.00 | 0.00 | 0.00 | 47 | 1006.3 |
| 20260509005022 | 22 | 19 | 6.4 | 19.3 | 0.00 | 0.00 | 0.00 | 47 | 1006.2 |
| 20260509004548 | 22 | 5 | 9.7 | 20.9 | 0.00 | 0.00 | 0.00 | 46 | 1006.1 |
| 20260509004021 | 22 | 28 | 8.0 | 22.5 | 0.00 | 0.00 | 0.00 | 46 | 1006.0 |
| 20260509003522 | 22 | 352 | 12.9 | 22.5 | 0.00 | 0.00 | 0.00 | 46 | 1005.9 |
| 20260509003040 | 22 | 351 | 9.7 | 22.5 | 0.00 | 0.00 | 0.00 | 48 | 1005.9 |
| 20260509002525 | 22 | 20 | 11.3 | 22.5 | 0.00 | 0.00 | 0.00 | 48 | 1005.8 |
| 20260509002022 | 22 | 32 | 14.5 | 22.5 | 0.00 | 0.00 | 0.00 | 47 | 1005.8 |
| 20260509001538 | 23 | 345 | 8.0 | 22.5 | 0.00 | 0.00 | 0.00 | 47 | 1005.7 |
| 20260509001021 | 23 | 53 | 11.3 | 25.7 | 0.00 | 0.00 | 0.00 | 46 | 1005.6 |
| 20260509000521 | 23 | 344 | 14.5 | 25.7 | 0.00 | 0.00 | 0.00 | 44 | 1005.6 |